Time,TemperatureF,DewpointF,PressureIn,WindDirection,WindDirectionDegrees,WindSpeedMPH,WindSpeedGustMPH,Humidity,HourlyPrecipIn,Conditions,Clouds,dailyrainin,SoftwareType,DateUTC
2013-03-11 00:00:00,30.0,30.0,30.29,SSW,202,0.0,5.0,100,0.00,,,0.00,Weather View 32 v70,2013-03-11 04:00:00,
2013-03-11 00:05:00,30.0,30.0,30.29,South,180,0.0,5.0,100,0.00,,,0.00,Weather View 32 v70,2013-03-11 04:05:00,
2013-03-11 00:10:00,30.0,30.0,30.29,SSW,202,1.0,5.0,100,0.00,,,0.00,Weather View 32 v70,2013-03-11 04:10:00,
2013-03-11 00:15:00,31.0,31.0,30.29,SE,135,1.0,5.0,100,0.00,,,0.00,Weather View 32 v70,2013-03-11 04:15:00,
2013-03-11 00:20:00,31.0,31.0,30.29,South,180,1.0,5.0,100,0.00,,,0.00,Weather View 32 v70,2013-03-11 04:20:00,
2013-03-11 00:25:00,31.0,31.0,30.28,SE,135,2.0,5.0,100,0.00,,,0.00,Weather View 32 v70,2013-03-11 04:25:00,
2013-03-11 00:30:00,31.0,31.0,30.28,SSE,158,0.0,5.0,100,0.00,,,0.00,Weather View 32 v70,2013-03-11 04:30:00,
2013-03-11 00:35:00,31.0,31.0,30.28,South,180,1.0,5.0,100,0.00,,,0.00,Weather View 32 v70,2013-03-11 04:35:00,
2013-03-11 00:40:00,31.0,31.0,30.29,SW,225,0.0,5.0,100,0.00,,,0.00,Weather View 32 v70,2013-03-11 04:40:00,
2013-03-11 00:45:00,31.0,31.0,30.28,West,270,0.0,5.0,100,0.00,,,0.00,Weather View 32 v70,2013-03-11 04:45:00,
2013-03-11 00:50:00,31.0,31.0,30.28,South,180,1.0,2.0,100,0.00,,,0.00,Weather View 32 v70,2013-03-11 04:50:00,
2013-03-11 00:55:00,31.0,31.0,30.28,SSW,202,1.0,2.0,100,0.00,,,0.00,Weather View 32 v70,2013-03-11 04:55:00,
2013-03-11 01:00:00,31.0,31.0,30.28,SE,135,0.0,2.0,100,0.00,,,0.00,Weather View 32 v70,2013-03-11 05:00:00,
2013-03-11 01:05:00,31.0,31.0,30.28,South,180,1.0,3.0,100,0.00,,,0.00,Weather View 32 v70,2013-03-11 05:05:00,
2013-03-11 01:10:00,31.0,31.0,30.29,SW,225,1.0,3.0,100,0.00,,,0.00,Weather View 32 v70,2013-03-11 05:10:00,
2013-03-11 01:15:00,31.0,31.0,30.29,SSW,202,1.0,3.0,100,0.00,,,0.00,Weather View 32 v70,2013-03-11 05:15:00,
2013-03-11 01:20:00,31.0,31.0,30.28,SE,135,1.0,4.0,100,0.00,,,0.00,Weather View 32 v70,2013-03-11 05:20:00,
2013-03-11 01:25:00,31.0,31.0,30.27,SE,135,0.0,4.0,100,0.00,,,0.00,Weather View 32 v70,2013-03-11 05:25:00,
2013-03-11 01:30:00,31.0,31.0,30.27,WNW,292,1.0,4.0,100,0.00,,,0.00,Weather View 32 v70,2013-03-11 05:30:00,
2013-03-11 01:35:00,31.0,31.0,30.27,SE,135,1.0,4.0,100,0.00,,,0.00,Weather View 32 v70,2013-03-11 05:35:00,
2013-03-11 01:40:00,31.0,31.0,30.26,South,180,1.0,4.0,100,0.00,,,0.00,Weather View 32 v70,2013-03-11 05:40:00,
2013-03-11 01:45:00,31.0,31.0,30.26,SW,225,0.0,4.0,100,0.00,,,0.00,Weather View 32 v70,2013-03-11 05:45:00,
2013-03-11 01:50:00,31.0,31.0,30.26,South,180,1.0,4.0,100,0.00,,,0.00,Weather View 32 v70,2013-03-11 05:50:00,
2013-03-11 01:55:00,30.0,30.0,30.24,South,180,1.0,4.0,100,0.00,,,0.00,Weather View 32 v70,2013-03-11 05:55:00,
2013-03-11 02:00:00,30.0,30.0,30.25,SSE,158,0.0,4.0,100,0.00,,,0.00,Weather View 32 v70,2013-03-11 06:00:00,
2013-03-11 02:05:00,30.0,30.0,30.24,South,180,1.0,4.0,100,0.00,,,0.00,Weather View 32 v70,2013-03-11 06:05:00,
2013-03-11 02:10:00,30.0,30.0,30.24,SW,225,0.0,4.0,100,0.00,,,0.00,Weather View 32 v70,2013-03-11 06:10:00,
2013-03-11 02:15:00,30.0,30.0,30.24,SSW,202,0.0,4.0,100,0.00,,,0.00,Weather View 32 v70,2013-03-11 06:15:00,
2013-03-11 02:20:00,30.0,30.0,30.24,South,180,1.0,4.0,100,0.00,,,0.00,Weather View 32 v70,2013-03-11 06:20:00,
2013-03-11 02:25:00,30.0,30.0,30.23,SW,225,1.0,4.0,100,0.00,,,0.00,Weather View 32 v70,2013-03-11 06:25:00,
2013-03-11 02:30:00,30.0,30.0,30.22,WSW,248,0.0,4.0,100,0.00,,,0.00,Weather View 32 v70,2013-03-11 06:30:00,
2013-03-11 02:35:00,30.0,30.0,30.23,SSW,202,0.0,4.0,100,0.00,,,0.00,Weather View 32 v70,2013-03-11 06:35:00,
2013-03-11 02:40:00,30.0,30.0,30.22,SE,135,1.0,4.0,100,0.00,,,0.00,Weather View 32 v70,2013-03-11 06:40:00,
2013-03-11 02:45:00,30.0,30.0,30.22,SSW,202,1.0,4.0,100,0.00,,,0.00,Weather View 32 v70,2013-03-11 06:45:00,
2013-03-11 02:50:00,30.0,30.0,30.22,SSE,158,1.0,5.0,100,0.00,,,0.00,Weather View 32 v70,2013-03-11 06:50:00,
2013-03-11 02:55:00,30.0,30.0,30.22,SE,135,2.0,5.0,100,0.00,,,0.00,Weather View 32 v70,2013-03-11 06:55:00,
2013-03-11 03:00:00,30.0,30.0,30.22,SE,135,3.0,5.0,100,0.00,,,0.00,Weather View 32 v70,2013-03-11 07:00:00,
2013-03-11 03:05:00,30.0,30.0,30.21,SE,135,3.0,5.0,100,0.00,,,0.00,Weather View 32 v70,2013-03-11 07:05:00,
2013-03-11 03:10:00,30.0,30.0,30.22,SSW,202,3.0,10.0,100,0.00,,,0.00,Weather View 32 v70,2013-03-11 07:10:00,
2013-03-11 03:15:00,30.0,30.0,30.22,SW,225,5.0,10.0,100,0.00,,,0.00,Weather View 32 v70,2013-03-11 07:15:00,
2013-03-11 03:20:00,30.0,30.0,30.22,SSW,202,1.0,10.0,100,0.00,,,0.00,Weather View 32 v70,2013-03-11 07:20:00,
2013-03-11 03:25:00,30.0,30.0,30.22,SE,135,3.0,10.0,100,0.00,,,0.00,Weather View 32 v70,2013-03-11 07:25:00,
2013-03-11 03:30:00,30.0,30.0,30.22,SSE,158,0.0,10.0,100,0.00,,,0.00,Weather View 32 v70,2013-03-11 07:30:00,
2013-03-11 03:35:00,30.0,30.0,30.21,WSW,248,1.0,10.0,100,0.00,,,0.00,Weather View 32 v70,2013-03-11 07:35:00,
2013-03-11 03:40:00,30.0,30.0,30.21,SSW,202,3.0,10.0,100,0.00,,,0.00,Weather View 32 v70,2013-03-11 07:40:00,
2013-03-11 03:45:00,30.0,30.0,30.21,SW,225,5.0,10.0,100,0.00,,,0.00,Weather View 32 v70,2013-03-11 07:45:00,
2013-03-11 03:50:00,30.0,30.0,30.21,SSE,158,3.0,10.0,100,0.00,,,0.00,Weather View 32 v70,2013-03-11 07:50:00,
2013-03-11 03:55:00,30.0,30.0,30.21,WSW,248,1.0,10.0,100,0.00,,,0.00,Weather View 32 v70,2013-03-11 07:55:00,
2013-03-11 04:00:00,30.0,30.0,30.21,WSW,248,1.0,10.0,100,0.00,,,0.00,Weather View 32 v70,2013-03-11 08:00:00,
2013-03-11 04:05:00,30.0,30.0,30.21,SW,225,1.0,10.0,100,0.00,,,0.00,Weather View 32 v70,2013-03-11 08:05:00,
2013-03-11 04:10:00,29.0,29.0,30.20,SW,225,0.0,8.0,100,0.00,,,0.00,Weather View 32 v70,2013-03-11 08:10:00,
2013-03-11 04:15:00,29.0,29.0,30.20,SW,225,0.0,8.0,100,0.00,,,0.00,Weather View 32 v70,2013-03-11 08:15:00,
2013-03-11 04:20:00,28.0,28.0,30.20,West,270,1.0,8.0,100,0.00,,,0.00,Weather View 32 v70,2013-03-11 08:20:00,
2013-03-11 04:25:00,28.0,28.0,30.20,WNW,292,1.0,8.0,100,0.00,,,0.00,Weather View 32 v70,2013-03-11 08:25:00,
2013-03-11 04:30:00,28.0,28.0,30.20,WNW,292,1.0,8.0,100,0.00,,,0.00,Weather View 32 v70,2013-03-11 08:30:00,
2013-03-11 04:35:00,28.0,28.0,30.20,WSW,248,0.0,8.0,100,0.00,,,0.00,Weather View 32 v70,2013-03-11 08:35:00,
2013-03-11 04:40:00,28.0,28.0,30.20,WSW,248,0.0,8.0,100,0.00,,,0.00,Weather View 32 v70,2013-03-11 08:40:00,
2013-03-11 04:45:00,28.0,28.0,30.20,SW,225,0.0,8.0,100,0.00,,,0.00,Weather View 32 v70,2013-03-11 08:45:00,
2013-03-11 04:50:00,28.0,28.0,30.20,SE,135,0.0,8.0,100,0.00,,,0.00,Weather View 32 v70,2013-03-11 08:50:00,
2013-03-11 04:55:00,28.0,28.0,30.20,SW,225,0.0,5.0,100,0.00,,,0.00,Weather View 32 v70,2013-03-11 08:55:00,
2013-03-11 05:00:00,28.0,28.0,30.21,WSW,248,0.0,4.0,100,0.00,,,0.00,Weather View 32 v70,2013-03-11 09:00:00,
2013-03-11 05:05:00,27.0,27.0,30.21,West,270,0.0,3.0,100,0.00,,,0.00,Weather View 32 v70,2013-03-11 09:05:00,
2013-03-11 05:10:00,28.0,28.0,30.21,West,270,1.0,3.0,100,0.00,,,0.00,Weather View 32 v70,2013-03-11 09:10:00,
2013-03-11 06:14:00,28.0,28.0,30.21,West,270,0.0,3.0,100,0.00,,,0.00,Weather View 32 v70,2013-03-11 10:14:00,
2013-03-11 06:24:00,27.0,27.0,30.21,WNW,292,0.0,3.0,100,0.00,,,0.00,Weather View 32 v70,2013-03-11 10:24:00,
2013-03-11 06:29:00,27.0,27.0,30.21,West,270,0.0,3.0,100,0.00,,,0.00,Weather View 32 v70,2013-03-11 10:29:00,
2013-03-11 06:34:00,27.0,27.0,30.21,SW,225,0.0,3.0,100,0.00,,,0.00,Weather View 32 v70,2013-03-11 10:34:00,
2013-03-11 06:39:00,27.0,27.0,30.21,WNW,292,1.0,3.0,100,0.00,,,0.00,Weather View 32 v70,2013-03-11 10:39:00,
2013-03-11 06:44:00,28.0,28.0,30.21,West,270,1.0,3.0,100,0.00,,,0.00,Weather View 32 v70,2013-03-11 10:44:00,
2013-03-11 06:54:00,28.0,28.0,30.21,WSW,248,0.0,3.0,100,0.00,,,0.00,Weather View 32 v70,2013-03-11 10:54:00,
2013-03-11 07:04:00,28.0,28.0,30.20,SE,135,0.0,3.0,100,0.00,,,0.00,Weather View 32 v70,2013-03-11 11:04:00,
2013-03-11 07:14:00,29.0,29.0,30.20,SSW,202,0.0,6.0,100,0.00,,,0.00,Weather View 32 v70,2013-03-11 11:14:00,
2013-03-11 07:24:00,29.0,29.0,30.20,South,180,2.0,11.0,100,0.00,,,0.00,Weather View 32 v70,2013-03-11 11:24:00,
2013-03-11 07:34:00,29.0,29.0,30.20,SSE,158,2.0,11.0,100,0.00,,,0.00,Weather View 32 v70,2013-03-11 11:34:00,
2013-03-11 07:39:00,29.0,29.0,30.20,SE,135,4.0,11.0,100,0.00,,,0.00,Weather View 32 v70,2013-03-11 11:39:00,
2013-03-11 07:45:00,29.0,29.0,30.20,SSE,158,1.0,11.0,100,0.00,,,0.00,Weather View 32 v70,2013-03-11 11:45:00,
2013-03-11 07:54:00,29.0,29.0,30.20,South,180,2.0,11.0,100,0.00,,,0.00,Weather View 32 v70,2013-03-11 11:54:00,
2013-03-11 07:59:00,29.0,29.0,30.20,South,180,1.0,11.0,100,0.00,,,0.00,Weather View 32 v70,2013-03-11 11:59:00,
2013-03-11 08:09:00,30.0,30.0,30.21,SE,135,1.0,11.0,100,0.00,,,0.00,Weather View 32 v70,2013-03-11 12:09:00,
2013-03-11 08:14:00,30.0,30.0,30.21,SE,135,6.0,11.0,100,0.00,,,0.00,Weather View 32 v70,2013-03-11 12:14:00,
2013-03-11 08:24:00,30.0,30.0,30.21,SSE,158,2.0,10.0,100,0.00,,,0.00,Weather View 32 v70,2013-03-11 12:24:00,
2013-03-11 08:34:00,31.0,31.0,30.21,SE,135,1.0,10.0,100,0.00,,,0.00,Weather View 32 v70,2013-03-11 12:34:00,
2013-03-11 08:39:00,31.0,31.0,30.21,SE,135,3.0,10.0,100,0.00,,,0.00,Weather View 32 v70,2013-03-11 12:39:00,
2013-03-11 08:44:00,31.0,31.0,30.21,South,180,8.0,10.0,100,0.00,,,0.00,Weather View 32 v70,2013-03-11 12:44:00,
2013-03-11 08:54:00,32.0,32.0,30.20,SE,135,2.0,10.0,100,0.00,,,0.00,Weather View 32 v70,2013-03-11 12:54:00,
2013-03-11 09:04:00,32.0,32.0,30.20,SSW,202,5.0,11.0,100,0.00,,,0.00,Weather View 32 v70,2013-03-11 13:04:00,
2013-03-11 09:09:00,32.0,32.0,30.20,SSW,202,7.0,11.0,100,0.00,,,0.00,Weather View 32 v70,2013-03-11 13:09:00,
2013-03-11 09:19:00,33.0,33.0,30.20,WNW,292,1.0,11.0,100,0.00,,,0.00,Weather View 32 v70,2013-03-11 13:19:00,
2013-03-11 09:24:00,33.0,33.0,30.20,SSE,158,1.0,11.0,100,0.00,,,0.00,Weather View 32 v70,2013-03-11 13:24:00,
2013-03-11 09:34:00,34.0,34.0,30.20,WSW,248,3.0,11.0,100,0.00,,,0.00,Weather View 32 v70,2013-03-11 13:34:00,
2013-03-11 09:39:00,35.0,35.0,30.20,SW,225,1.0,11.0,100,0.00,,,0.00,Weather View 32 v70,2013-03-11 13:39:00,
2013-03-11 09:44:00,35.0,34.5,30.20,South,180,1.0,11.0,98,0.00,,,0.00,Weather View 32 v70,2013-03-11 13:44:00,
2013-03-11 09:54:00,35.0,33.7,30.20,SSE,158,4.0,11.0,95,0.00,,,0.00,Weather View 32 v70,2013-03-11 13:54:00,
2013-03-11 09:59:00,35.0,33.4,30.20,SE,135,3.0,11.0,94,0.00,,,0.00,Weather View 32 v70,2013-03-11 13:59:00,
2013-03-11 10:09:00,36.0,33.6,30.20,SSW,202,5.0,11.0,91,0.00,,,0.00,Weather View 32 v70,2013-03-11 14:09:00,
2013-03-11 10:19:00,36.0,33.1,30.20,SW,225,1.0,11.0,89,0.00,,,0.00,Weather View 32 v70,2013-03-11 14:19:00,
2013-03-11 10:29:00,37.0,33.5,30.20,SSE,158,1.0,11.0,87,0.00,,,0.00,Weather View 32 v70,2013-03-11 14:29:00,
2013-03-11 10:39:00,38.0,33.6,30.20,SE,135,0.0,11.0,84,0.00,,,0.00,Weather View 32 v70,2013-03-11 14:39:00,
2013-03-11 10:44:00,38.0,33.3,30.20,SSE,158,1.0,11.0,83,0.00,,,0.00,Weather View 32 v70,2013-03-11 14:44:00,
2013-03-11 10:54:00,38.0,33.0,30.20,WNW,292,1.0,11.0,82,0.00,,,0.00,Weather View 32 v70,2013-03-11 14:54:00,
2013-03-11 11:04:00,39.0,33.3,30.20,SE,135,1.0,8.0,80,0.00,,,0.00,Weather View 32 v70,2013-03-11 15:04:00,
2013-03-11 11:09:00,39.0,33.3,30.20,SSW,202,1.0,8.0,80,0.00,,,0.00,Weather View 32 v70,2013-03-11 15:09:00,
2013-03-11 11:14:00,39.0,32.7,30.20,SSW,202,2.0,8.0,78,0.00,,,0.00,Weather View 32 v70,2013-03-11 15:14:00,
2013-03-11 11:19:00,39.0,33.0,30.20,SE,135,2.0,5.0,79,0.00,,,0.00,Weather View 32 v70,2013-03-11 15:19:00,
2013-03-11 11:29:00,39.0,33.3,30.19,SSE,158,1.0,5.0,80,0.00,,,0.00,Weather View 32 v70,2013-03-11 15:29:00,
2013-03-11 11:39:00,38.0,32.4,30.19,SSE,158,2.0,5.0,80,0.00,,,0.00,Weather View 32 v70,2013-03-11 15:39:00,
2013-03-11 12:45:00,48.0,30.2,30.17,South,180,6.0,14.0,50,0.00,,,0.00,Weather View 32 v70,2013-03-11 16:45:00,
2013-03-11 12:50:00,48.0,30.2,30.17,SSE,158,3.0,14.0,50,0.00,,,0.00,Weather View 32 v70,2013-03-11 16:50:00,
2013-03-11 12:55:00,48.0,30.2,30.17,South,180,5.0,13.0,50,0.00,,,0.00,Weather View 32 v70,2013-03-11 16:55:00,
2013-03-11 13:10:00,49.0,31.1,30.16,SSE,158,2.0,13.0,50,0.00,,,0.00,Weather View 32 v70,2013-03-11 17:10:00,
2013-03-11 13:45:00,48.0,31.7,30.14,SE,135,1.0,9.0,53,0.00,,,0.00,Weather View 32 v70,2013-03-11 17:45:00,
2013-03-11 13:50:00,48.0,32.1,30.14,SE,135,3.0,9.0,54,0.00,,,0.00,Weather View 32 v70,2013-03-11 17:50:00,
2013-03-11 13:59:00,48.0,30.2,30.16,South,180,5.0,13.0,50,0.00,,,0.00,Weather View 32 v70,2013-03-11 17:59:00,
2013-03-11 14:00:00,48.0,31.2,30.14,SW,225,2.0,9.0,52,0.00,,,0.00,Weather View 32 v70,2013-03-11 18:00:00,
2013-03-11 14:14:00,49.0,31.6,30.16,SSE,158,1.0,13.0,51,0.00,,,0.00,Weather View 32 v70,2013-03-11 18:14:00,
2013-03-11 14:24:00,48.0,30.7,30.15,SSW,202,1.0,13.0,51,0.00,,,0.00,Weather View 32 v70,2013-03-11 18:24:00,
2013-03-11 14:25:00,47.0,31.6,30.15,South,180,2.0,9.0,55,0.00,,,0.00,Weather View 32 v70,2013-03-11 18:25:00,
2013-03-11 14:34:00,48.0,30.7,30.14,SSW,202,3.0,13.0,51,0.00,,,0.00,Weather View 32 v70,2013-03-11 18:34:00,
2013-03-11 14:35:00,47.0,31.6,30.14,SSW,202,2.0,9.0,55,0.00,,,0.00,Weather View 32 v70,2013-03-11 18:35:00,
2013-03-11 14:39:00,48.0,31.2,30.15,SE,135,1.0,10.0,52,0.00,,,0.00,Weather View 32 v70,2013-03-11 18:39:00,
2013-03-11 14:40:00,47.0,31.6,30.14,South,180,3.0,9.0,55,0.00,,,0.00,Weather View 32 v70,2013-03-11 18:40:00,
2013-03-11 14:54:00,48.0,31.7,30.15,South,180,1.0,9.0,53,0.00,,,0.00,Weather View 32 v70,2013-03-11 18:54:00,
2013-03-11 15:04:00,48.0,31.2,30.15,SSE,158,4.0,9.0,52,0.00,,,0.00,Weather View 32 v70,2013-03-11 19:04:00,
2013-03-11 15:10:00,47.0,32.5,30.13,South,180,6.0,8.0,57,0.00,,,0.00,Weather View 32 v70,2013-03-11 19:10:00,
2013-03-11 15:14:00,48.0,31.7,30.15,SE,135,3.0,9.0,53,0.00,,,0.00,Weather View 32 v70,2013-03-11 19:14:00,
2013-03-11 15:19:00,48.0,32.1,30.15,SE,135,3.0,9.0,54,0.00,,,0.00,Weather View 32 v70,2013-03-11 19:19:00,
2013-03-11 15:25:00,46.0,32.9,30.13,SE,135,1.0,10.0,60,0.00,,,0.00,Weather View 32 v70,2013-03-11 19:25:00,
2013-03-11 15:29:00,47.0,31.6,30.15,SSE,158,4.0,9.0,55,0.00,,,0.00,Weather View 32 v70,2013-03-11 19:29:00,
2013-03-11 15:35:00,44.0,31.8,30.13,SSE,158,1.0,10.0,62,0.00,,,0.00,Weather View 32 v70,2013-03-11 19:35:00,
2013-03-11 15:44:00,47.0,31.6,30.14,WSW,248,1.0,9.0,55,0.00,,,0.00,Weather View 32 v70,2013-03-11 19:44:00,
2013-03-11 15:50:00,47.0,31.6,30.14,SW,225,1.0,9.0,55,0.00,,,0.00,Weather View 32 v70,2013-03-11 19:50:00,
2013-03-11 15:55:00,44.0,33.0,30.13,South,180,2.0,10.0,65,0.00,,,0.00,Weather View 32 v70,2013-03-11 19:55:00,
2013-03-11 15:59:00,47.0,32.5,30.14,SW,225,1.0,8.0,57,0.00,,,0.00,Weather View 32 v70,2013-03-11 19:59:00,
2013-03-11 16:14:00,47.0,32.1,30.13,SW,225,0.0,10.0,56,0.00,,,0.00,Weather View 32 v70,2013-03-11 20:14:00,
2013-03-11 16:19:00,46.0,32.0,30.13,WSW,248,1.0,10.0,58,0.00,,,0.00,Weather View 32 v70,2013-03-11 20:19:00,
2013-03-11 16:25:00,42.0,32.2,30.12,South,180,1.0,10.0,68,0.00,,,0.00,Weather View 32 v70,2013-03-11 20:25:00,
2013-03-11 16:29:00,45.0,32.3,30.13,West,270,1.0,10.0,61,0.00,,,0.00,Weather View 32 v70,2013-03-11 20:29:00,
2013-03-11 16:39:00,44.0,32.2,30.13,South,180,0.0,10.0,63,0.00,,,0.00,Weather View 32 v70,2013-03-11 20:39:00,
2013-03-11 16:50:00,41.0,32.7,30.13,WSW,248,1.0,10.0,72,0.00,,,0.00,Weather View 32 v70,2013-03-11 20:50:00,
2013-03-11 16:59:00,44.0,32.2,30.13,SSE,158,1.0,10.0,63,0.00,,,0.00,Weather View 32 v70,2013-03-11 20:59:00,
2013-03-11 17:09:00,44.0,32.6,30.13,SSE,158,0.0,10.0,64,0.00,,,0.00,Weather View 32 v70,2013-03-11 21:09:00,
2013-03-11 17:14:00,43.0,32.4,30.12,WNW,292,0.0,10.0,66,0.00,,,0.00,Weather View 32 v70,2013-03-11 21:14:00,
2013-03-11 17:20:00,40.0,32.4,30.12,SW,225,0.0,3.0,74,0.00,,,0.00,Weather View 32 v70,2013-03-11 21:20:00,
2013-03-11 17:29:00,42.0,32.6,30.12,SE,135,1.0,10.0,69,0.00,,,0.00,Weather View 32 v70,2013-03-11 21:29:00,
2013-03-11 17:34:00,41.0,32.3,30.13,SW,225,0.0,10.0,71,0.00,,,0.00,Weather View 32 v70,2013-03-11 21:34:00,
2013-03-11 17:44:00,41.0,32.7,30.13,South,180,1.0,10.0,72,0.00,,,0.00,Weather View 32 v70,2013-03-11 21:44:00,
2013-03-11 17:50:00,38.0,32.1,30.12,SW,225,1.0,5.0,79,0.00,,,0.00,Weather View 32 v70,2013-03-11 21:50:00,
2013-03-11 17:51:00,41.0,32.7,30.13,WSW,248,1.0,10.0,72,0.00,,,0.00,Weather View 32 v70,2013-03-11 21:51:00,
2013-03-11 17:55:00,37.0,31.1,30.12,WNW,292,0.0,5.0,79,0.00,,,0.00,Weather View 32 v70,2013-03-11 21:55:00,
2013-03-11 17:59:00,40.0,32.0,30.13,West,270,1.0,8.0,73,0.00,,,0.00,Weather View 32 v70,2013-03-11 21:59:00,
2013-03-11 18:09:00,40.0,32.0,30.12,SSW,202,0.0,3.0,73,0.00,,,0.00,Weather View 32 v70,2013-03-11 22:09:00,
2013-03-11 18:14:00,40.0,32.0,30.12,WNW,292,0.0,3.0,73,0.00,,,0.00,Weather View 32 v70,2013-03-11 22:14:00,
2013-03-11 18:24:00,40.0,32.7,30.12,WSW,248,1.0,5.0,75,0.00,,,0.00,Weather View 32 v70,2013-03-11 22:24:00,
2013-03-11 18:29:00,39.0,32.1,30.12,West,270,0.0,5.0,76,0.00,,,0.00,Weather View 32 v70,2013-03-11 22:29:00,
2013-03-11 18:34:00,39.0,32.1,30.13,WSW,248,0.0,5.0,76,0.00,,,0.00,Weather View 32 v70,2013-03-11 22:34:00,
2013-03-11 18:44:00,38.0,31.4,30.13,WNW,292,1.0,5.0,77,0.00,,,0.00,Weather View 32 v70,2013-03-11 22:44:00,
2013-03-11 18:51:00,38.0,32.1,30.12,SW,225,1.0,5.0,79,0.00,,,0.00,Weather View 32 v70,2013-03-11 22:51:00,
2013-03-11 18:59:00,37.0,31.1,30.12,West,270,0.0,5.0,79,0.00,,,0.00,Weather View 32 v70,2013-03-11 22:59:00,
2013-03-11 19:09:00,37.0,31.4,30.12,WSW,248,0.0,5.0,80,0.00,,,0.00,Weather View 32 v70,2013-03-11 23:09:00,
2013-03-11 19:19:00,37.0,31.4,30.12,SSW,202,0.0,5.0,80,0.00,,,0.00,Weather View 32 v70,2013-03-11 23:19:00,
2013-03-11 19:24:00,38.0,32.4,30.12,West,270,0.0,5.0,80,0.00,,,0.00,Weather View 32 v70,2013-03-11 23:24:00,
2013-03-11 19:34:00,38.0,32.1,30.13,SSW,202,1.0,3.0,79,0.00,,,0.00,Weather View 32 v70,2013-03-11 23:34:00,
2013-03-11 19:44:00,38.0,32.1,30.13,SW,225,0.0,3.0,79,0.00,,,0.00,Weather View 32 v70,2013-03-11 23:44:00,
2013-03-11 19:49:00,37.0,31.4,30.13,SSE,158,0.0,3.0,80,0.00,,,0.00,Weather View 32 v70,2013-03-11 23:49:00,
2013-03-11 19:54:00,37.0,31.4,30.13,West,270,0.0,3.0,80,0.00,,,0.00,Weather View 32 v70,2013-03-11 23:54:00,
2013-03-11 20:04:00,37.0,31.7,30.13,SW,225,0.0,2.0,81,0.00,,,0.00,Weather View 32 v70,2013-03-12 00:04:00,
2013-03-11 20:14:00,37.0,31.7,30.12,WNW,292,0.0,2.0,81,0.00,,,0.00,Weather View 32 v70,2013-03-12 00:14:00,
2013-03-11 20:24:00,37.0,31.7,30.13,South,180,1.0,2.0,81,0.00,,,0.00,Weather View 32 v70,2013-03-12 00:24:00,
2013-03-11 20:34:00,36.0,31.0,30.12,SSW,202,0.0,3.0,82,0.00,,,0.00,Weather View 32 v70,2013-03-12 00:34:00,
2013-03-11 20:44:00,36.0,31.3,30.12,South,180,0.0,3.0,83,0.00,,,0.00,Weather View 32 v70,2013-03-12 00:44:00,
2013-03-11 20:49:00,36.0,31.3,30.12,South,180,1.0,3.0,83,0.00,,,0.00,Weather View 32 v70,2013-03-12 00:49:00,
2013-03-11 20:54:00,36.0,31.3,30.12,South,180,1.0,4.0,83,0.00,,,0.00,Weather View 32 v70,2013-03-12 00:54:00,
2013-03-11 21:04:00,36.0,31.6,30.12,SE,135,2.0,4.0,84,0.00,,,0.00,Weather View 32 v70,2013-03-12 01:04:00,
2013-03-11 21:14:00,36.0,31.9,30.13,SW,225,0.0,4.0,85,0.00,,,0.00,Weather View 32 v70,2013-03-12 01:14:00,
2013-03-11 21:24:00,36.0,32.2,30.12,SW,225,0.0,4.0,86,0.00,,,0.00,Weather View 32 v70,2013-03-12 01:24:00,
2013-03-11 21:34:00,36.0,32.5,30.12,SSW,202,0.0,4.0,87,0.00,,,0.00,Weather View 32 v70,2013-03-12 01:34:00,
2013-03-11 21:39:00,35.0,31.5,30.12,SSW,202,0.0,4.0,87,0.00,,,0.00,Weather View 32 v70,2013-03-12 01:39:00,
2013-03-11 21:49:00,35.0,31.5,30.12,SSW,202,0.0,4.0,87,0.00,,,0.00,Weather View 32 v70,2013-03-12 01:49:00,
2013-03-11 21:54:00,34.0,30.8,30.12,SSW,202,0.0,4.0,88,0.00,,,0.00,Weather View 32 v70,2013-03-12 01:54:00,
2013-03-11 21:59:00,34.0,30.8,30.12,South,180,1.0,4.0,88,0.00,,,0.00,Weather View 32 v70,2013-03-12 01:59:00,
2013-03-11 22:09:00,34.0,31.4,30.12,SW,225,0.0,4.0,90,0.00,,,0.00,Weather View 32 v70,2013-03-12 02:09:00,
2013-03-11 22:19:00,33.0,30.9,30.12,South,180,0.0,4.0,92,0.00,,,0.00,Weather View 32 v70,2013-03-12 02:19:00,
2013-03-11 22:29:00,33.0,31.2,30.12,West,270,0.0,2.0,93,0.00,,,0.00,Weather View 32 v70,2013-03-12 02:29:00,
2013-03-11 22:34:00,33.0,31.5,30.12,South,180,0.0,2.0,94,0.00,,,0.00,Weather View 32 v70,2013-03-12 02:34:00,
2013-03-11 22:44:00,33.0,31.7,30.12,SSW,202,0.0,2.0,95,0.00,,,0.00,Weather View 32 v70,2013-03-12 02:44:00,
2013-03-11 22:54:00,33.0,32.0,30.12,SSE,158,0.0,3.0,96,0.00,,,0.00,Weather View 32 v70,2013-03-12 02:54:00,
2013-03-11 22:59:00,34.0,33.2,30.11,West,270,0.0,3.0,97,0.00,,,0.00,Weather View 32 v70,2013-03-12 02:59:00,
2013-03-11 23:04:00,33.0,32.2,30.12,SSW,202,1.0,3.0,97,0.00,,,0.00,Weather View 32 v70,2013-03-12 03:04:00,
2013-03-11 23:05:00,34.0,34.0,30.12,SSW,202,1.0,4.0,100,0.00,,,0.00,Weather View 32 v70,2013-03-12 03:05:00,
2013-03-11 23:09:00,34.0,33.5,30.12,SSW,202,1.0,3.0,98,0.00,,,0.00,Weather View 32 v70,2013-03-12 03:09:00,
2013-03-11 23:10:00,34.0,34.0,30.12,South,180,1.0,4.0,100,0.00,,,0.00,Weather View 32 v70,2013-03-12 03:10:00,
2013-03-11 23:14:00,34.0,33.5,30.12,SW,225,0.0,3.0,98,0.00,,,0.00,Weather View 32 v70,2013-03-12 03:14:00,
2013-03-11 23:20:00,34.0,34.0,30.12,SE,135,0.0,4.0,100,0.00,,,0.00,Weather View 32 v70,2013-03-12 03:20:00,
2013-03-11 23:24:00,34.0,33.7,30.11,South,180,1.0,3.0,99,0.00,,,0.00,Weather View 32 v70,2013-03-12 03:24:00,
2013-03-11 23:25:00,35.0,35.0,30.12,South,180,1.0,4.0,100,0.00,,,0.00,Weather View 32 v70,2013-03-12 03:25:00,
2013-03-11 23:30:00,35.0,35.0,30.12,South,180,2.0,4.0,100,0.00,,,0.00,Weather View 32 v70,2013-03-12 03:30:00,
2013-03-11 23:34:00,34.0,34.0,30.12,SSW,202,0.0,3.0,100,0.00,,,0.00,Weather View 32 v70,2013-03-12 03:34:00,
2013-03-11 23:35:00,35.0,35.0,30.12,West,270,1.0,4.0,100,0.00,,,0.00,Weather View 32 v70,2013-03-12 03:35:00,
2013-03-11 23:39:00,34.0,34.0,30.12,West,270,0.0,3.0,100,0.00,,,0.00,Weather View 32 v70,2013-03-12 03:39:00,
2013-03-11 23:45:00,35.0,35.0,30.11,SW,225,0.0,4.0,100,0.00,,,0.00,Weather View 32 v70,2013-03-12 03:45:00,
2013-03-11 23:49:00,34.0,34.0,30.12,SW,225,0.0,4.0,100,0.00,,,0.00,Weather View 32 v70,2013-03-12 03:49:00,
2013-03-11 23:50:00,35.0,35.0,30.11,WSW,248,0.0,4.0,100,0.00,,,0.00,Weather View 32 v70,2013-03-12 03:50:00,
2013-03-11 23:54:00,34.0,34.0,30.12,SSW,202,1.0,4.0,100,0.00,,,0.00,Weather View 32 v70,2013-03-12 03:54:00,
2013-03-11 23:55:00,35.0,35.0,30.11,SW,225,0.0,4.0,100,0.00,,,0.00,Weather View 32 v70,2013-03-12 03:55:00,